Portada
METAR-TAF:

METAR-TAF

Aeroports :

Pontoise, França

latitud: 49-05-48N, longitud: 002-02-27E, altitud: 99 m

Observació

L'informe es va fer fa 43 minuts, a les 15:00 UTC
Vent 18 kt del Nord-Oest
Temperatura 9°C
Humitat 61%
Pressió 1015 hPa
Visibilitat 10 km o més
Cel ennuvolat a una alçada de 4700 ft
Cel ennuvolat a una alçada de 5800 ft

METAR: LFPT 091500Z AUTO 32018KT 9999 BKN047 BKN058 09/02 Q1015

Hora: 16:43 (15:43 UTC)


TAF: manca

Observacions i pronòstics meteorològics de més de 4000 aeroports (METAR i TAF).

Les estacions disponibles són els punts grocs i vermells al mapa.

Posi el ratolí al punt desitjat per veure el nom de l'estació.

Feu clic per veure les observacions i els pronòstics meteorològics.

Per canviar el mapa: feu clic els botons verds amb una creu de color negre per apropar; al botó verd amb un guió per allunyar la imatge; o en les fletxes verdes per a mapes adjacents.


METAR-TAF: